Time,TemperatureF,DewpointF,PressureIn,WindDirection,WindDirectionDegrees,WindSpeedMPH,WindSpeedGustMPH,Humidity,HourlyPrecipIn,Conditions,Clouds,dailyrainin,SoftwareType,DateUTC
2013-09-23 00:12:00,53.0,-99.9,30.10,SSE,150,1.0,6.0,-999,-99.99,,,-99.99,,2013-09-23 05:12:00,
2013-09-23 00:23:00,53.0,-99.9,30.10,SSE,150,1.0,6.0,-999,-99.99,,,-99.99,,2013-09-23 05:23:00,
2013-09-23 00:34:00,53.0,-99.9,30.10,SSE,150,1.0,6.0,-999,-99.99,,,-99.99,,2013-09-23 05:34:00,
2013-09-23 00:40:00,52.0,-99.9,30.10,South,180,5.0,9.0,-999,-99.99,,,-99.99,,2013-09-23 05:40:00,
2013-09-23 01:13:00,52.0,-99.9,30.10,South,180,5.0,9.0,-999,-99.99,,,-99.99,,2013-09-23 06:13:00,
2013-09-23 01:22:00,52.0,-99.9,30.10,South,180,5.0,9.0,-999,-99.99,,,-99.99,,2013-09-23 06:22:00,
2013-09-23 01:32:00,52.0,-99.9,30.10,South,180,5.0,9.0,-999,-99.99,,,-99.99,,2013-09-23 06:32:00,
2013-09-23 01:40:00,53.0,-99.9,30.10,ESE,110,7.0,10.0,-999,-99.99,,,-99.99,,2013-09-23 06:40:00,
2013-09-23 02:12:00,53.0,-99.9,30.10,ESE,110,7.0,10.0,-999,-99.99,,,-99.99,,2013-09-23 07:12:00,
2013-09-23 02:22:00,53.0,-99.9,30.10,ESE,110,7.0,10.0,-999,-99.99,,,-99.99,,2013-09-23 07:22:00,
2013-09-23 02:32:00,53.0,-99.9,30.10,ESE,110,7.0,10.0,-999,-99.99,,,-99.99,,2013-09-23 07:32:00,
2013-09-23 02:40:00,51.0,-99.9,30.11,SW,220,1.0,3.0,-999,-99.99,,,-99.99,,2013-09-23 07:40:00,
2013-09-23 03:11:00,51.0,-99.9,30.11,SW,220,1.0,3.0,-999,-99.99,,,-99.99,,2013-09-23 08:11:00,
2013-09-23 03:23:00,51.0,-99.9,30.11,SW,220,1.0,3.0,-999,-99.99,,,-99.99,,2013-09-23 08:23:00,
2013-09-23 03:32:00,51.0,-99.9,30.11,SW,220,1.0,3.0,-999,-99.99,,,-99.99,,2013-09-23 08:32:00,
2013-09-23 03:40:00,53.0,-99.9,30.11,SSE,150,5.0,9.0,-999,-99.99,,,-99.99,,2013-09-23 08:40:00,
2013-09-23 04:11:00,53.0,-99.9,30.11,SSE,150,5.0,9.0,-999,-99.99,,,-99.99,,2013-09-23 09:11:00,
2013-09-23 04:22:00,53.0,-99.9,30.11,SSE,150,5.0,9.0,-999,-99.99,,,-99.99,,2013-09-23 09:22:00,
2013-09-23 04:33:00,53.0,-99.9,30.11,SSE,150,5.0,9.0,-999,-99.99,,,-99.99,,2013-09-23 09:33:00,
2013-09-23 04:40:00,53.0,-99.9,30.12,South,170,2.0,7.0,-999,-99.99,,,-99.99,,2013-09-23 09:40:00,
2013-09-23 05:13:00,53.0,-99.9,30.12,South,170,2.0,7.0,-999,-99.99,,,-99.99,,2013-09-23 10:13:00,
2013-09-23 05:23:00,53.0,-99.9,30.12,South,170,2.0,7.0,-999,-99.99,,,-99.99,,2013-09-23 10:23:00,
2013-09-23 05:33:00,53.0,-99.9,30.12,South,170,2.0,7.0,-999,-99.99,,,-99.99,,2013-09-23 10:33:00,
2013-09-23 05:40:00,53.0,-99.9,30.13,South,170,3.0,7.0,-999,-99.99,,,-99.99,,2013-09-23 10:40:00,
2013-09-23 06:12:00,53.0,-99.9,30.13,South,170,3.0,7.0,-999,-99.99,,,-99.99,,2013-09-23 11:12:00,
2013-09-23 06:22:00,53.0,-99.9,30.13,South,170,3.0,7.0,-999,-99.99,,,-99.99,,2013-09-23 11:22:00,
2013-09-23 06:33:00,53.0,-99.9,30.13,South,170,3.0,7.0,-999,-99.99,,,-99.99,,2013-09-23 11:33:00,
2013-09-23 06:40:00,52.0,-99.9,30.14,SSW,200,2.0,3.0,-999,-99.99,,,-99.99,,2013-09-23 11:40:00,
2013-09-23 07:11:00,52.0,-99.9,30.14,SSW,200,2.0,3.0,-999,-99.99,,,-99.99,,2013-09-23 12:11:00,
2013-09-23 07:22:00,52.0,-99.9,30.14,SSW,200,2.0,3.0,-999,-99.99,,,-99.99,,2013-09-23 12:22:00,
2013-09-23 07:32:00,52.0,-99.9,30.14,SSW,200,2.0,3.0,-999,-99.99,,,-99.99,,2013-09-23 12:32:00,
2013-09-23 07:40:00,54.0,-99.9,30.15,SE,130,9.0,11.0,-999,-99.99,,,-99.99,,2013-09-23 12:40:00,
2013-09-23 08:11:00,54.0,-99.9,30.15,SE,130,9.0,11.0,-999,-99.99,,,-99.99,,2013-09-23 13:11:00,
2013-09-23 08:22:00,54.0,-99.9,30.15,SE,130,9.0,11.0,-999,-99.99,,,-99.99,,2013-09-23 13:22:00,
2013-09-23 08:32:00,54.0,-99.9,30.15,SE,130,9.0,11.0,-999,-99.99,,,-99.99,,2013-09-23 13:32:00,
2013-09-23 08:40:00,54.0,-99.9,30.16,SE,140,10.0,16.0,-999,-99.99,,,-99.99,,2013-09-23 13:40:00,
2013-09-23 09:12:00,54.0,-99.9,30.16,SE,140,10.0,16.0,-999,-99.99,,,-99.99,,2013-09-23 14:12:00,
2013-09-23 09:22:00,54.0,-99.9,30.16,SE,140,10.0,16.0,-999,-99.99,,,-99.99,,2013-09-23 14:22:00,
2013-09-23 09:33:00,54.0,-99.9,30.16,SE,140,10.0,16.0,-999,-99.99,,,-99.99,,2013-09-23 14:33:00,
2013-09-23 09:40:00,54.0,-99.9,30.17,SE,130,7.0,14.0,-999,-99.99,,,-99.99,,2013-09-23 14:40:00,
2013-09-23 10:12:00,54.0,-99.9,30.17,SE,130,7.0,14.0,-999,-99.99,,,-99.99,,2013-09-23 15:12:00,
2013-09-23 10:22:00,54.0,-99.9,30.17,SE,130,7.0,14.0,-999,-99.99,,,-99.99,,2013-09-23 15:22:00,
2013-09-23 10:33:00,54.0,-99.9,30.17,SE,130,7.0,14.0,-999,-99.99,,,-99.99,,2013-09-23 15:33:00,
2013-09-23 10:40:00,54.0,-99.9,30.17,SE,140,11.0,15.0,-999,-99.99,,,-99.99,,2013-09-23 15:40:00,
2013-09-23 11:12:00,54.0,-99.9,30.17,SE,140,11.0,15.0,-999,-99.99,,,-99.99,,2013-09-23 16:12:00,
2013-09-23 11:24:00,54.0,-99.9,30.17,SE,140,11.0,15.0,-999,-99.99,,,-99.99,,2013-09-23 16:24:00,
2013-09-23 11:33:00,54.0,-99.9,30.17,SE,140,11.0,15.0,-999,-99.99,,,-99.99,,2013-09-23 16:33:00,
2013-09-23 11:40:00,55.0,-99.9,30.17,SSE,150,7.0,14.0,-999,-99.99,,,-99.99,,2013-09-23 16:40:00,
2013-09-23 12:12:00,55.0,-99.9,30.17,SSE,150,7.0,14.0,-999,-99.99,,,-99.99,,2013-09-23 17:12:00,
2013-09-23 12:24:00,55.0,-99.9,30.17,SSE,150,7.0,14.0,-999,-99.99,,,-99.99,,2013-09-23 17:24:00,
2013-09-23 12:34:00,55.0,-99.9,30.17,SSE,150,7.0,14.0,-999,-99.99,,,-99.99,,2013-09-23 17:34:00,
2013-09-23 12:40:00,55.0,-99.9,30.17,SSE,150,10.0,13.0,-999,-99.99,,,-99.99,,2013-09-23 17:40:00,
2013-09-23 13:13:00,55.0,-99.9,30.17,SSE,150,10.0,13.0,-999,-99.99,,,-99.99,,2013-09-23 18:13:00,
2013-09-23 13:22:00,55.0,-99.9,30.17,SSE,150,10.0,13.0,-999,-99.99,,,-99.99,,2013-09-23 18:22:00,
2013-09-23 13:33:00,55.0,-99.9,30.17,SSE,150,10.0,13.0,-999,-99.99,,,-99.99,,2013-09-23 18:33:00,
2013-09-23 13:40:00,56.0,-99.9,30.14,SSE,150,8.0,15.0,-999,-99.99,,,-99.99,,2013-09-23 18:40:00,
2013-09-23 14:12:00,56.0,-99.9,30.14,SSE,150,8.0,15.0,-999,-99.99,,,-99.99,,2013-09-23 19:12:00,
2013-09-23 14:22:00,56.0,-99.9,30.14,SSE,150,8.0,15.0,-999,-99.99,,,-99.99,,2013-09-23 19:22:00,
2013-09-23 14:33:00,56.0,-99.9,30.14,SSE,150,8.0,15.0,-999,-99.99,,,-99.99,,2013-09-23 19:33:00,
2013-09-23 14:40:00,56.0,-99.9,30.13,SSE,150,8.0,13.0,-999,-99.99,,,-99.99,,2013-09-23 19:40:00,
2013-09-23 15:12:00,56.0,-99.9,30.13,SSE,150,8.0,13.0,-999,-99.99,,,-99.99,,2013-09-23 20:12:00,
2013-09-23 15:22:00,56.0,-99.9,30.13,SSE,150,8.0,13.0,-999,-99.99,,,-99.99,,2013-09-23 20:22:00,
2013-09-23 15:32:00,56.0,-99.9,30.13,SSE,150,8.0,13.0,-999,-99.99,,,-99.99,,2013-09-23 20:32:00,
2013-09-23 15:40:00,57.0,-99.9,30.12,South,170,8.0,14.0,-999,-99.99,,,-99.99,,2013-09-23 20:40:00,
2013-09-23 16:12:00,57.0,-99.9,30.12,South,170,8.0,14.0,-999,-99.99,,,-99.99,,2013-09-23 21:12:00,
2013-09-23 16:23:00,57.0,-99.9,30.12,South,170,8.0,14.0,-999,-99.99,,,-99.99,,2013-09-23 21:23:00,
2013-09-23 16:34:00,57.0,-99.9,30.12,South,170,8.0,14.0,-999,-99.99,,,-99.99,,2013-09-23 21:34:00,
2013-09-23 16:40:00,57.0,-99.9,30.13,SSE,150,7.0,13.0,-999,-99.99,,,-99.99,,2013-09-23 21:40:00,
2013-09-23 17:14:00,57.0,-99.9,30.13,SSE,150,7.0,13.0,-999,-99.99,,,-99.99,,2013-09-23 22:14:00,
2013-09-23 17:24:00,57.0,-99.9,30.13,SSE,150,7.0,13.0,-999,-99.99,,,-99.99,,2013-09-23 22:24:00,
2013-09-23 17:33:00,57.0,-99.9,30.13,SSE,150,7.0,13.0,-999,-99.99,,,-99.99,,2013-09-23 22:33:00,
2013-09-23 17:40:00,57.0,-99.9,30.12,SSE,160,5.0,10.0,-999,-99.99,,,-99.99,,2013-09-23 22:40:00,
2013-09-23 18:12:00,57.0,-99.9,30.12,SSE,160,5.0,10.0,-999,-99.99,,,-99.99,,2013-09-23 23:12:00,
2013-09-23 18:23:00,57.0,-99.9,30.12,SSE,160,5.0,10.0,-999,-99.99,,,-99.99,,2013-09-23 23:23:00,
2013-09-23 18:34:00,57.0,-99.9,30.12,SSE,160,5.0,10.0,-999,-99.99,,,-99.99,,2013-09-23 23:34:00,
2013-09-23 18:40:00,54.0,-99.9,30.11,South,190,2.0,3.0,-999,-99.99,,,-99.99,,2013-09-23 23:40:00,
2013-09-23 19:12:00,54.0,-99.9,30.11,South,190,2.0,3.0,-999,-99.99,,,-99.99,,2013-09-24 00:12:00,
2013-09-23 19:22:00,54.0,-99.9,30.11,South,190,2.0,3.0,-999,-99.99,,,-99.99,,2013-09-24 00:22:00,
2013-09-23 19:32:00,54.0,-99.9,30.11,South,190,2.0,3.0,-999,-99.99,,,-99.99,,2013-09-24 00:32:00,
2013-09-23 19:40:00,52.0,-99.9,30.11,South,180,2.0,5.0,-999,-99.99,,,-99.99,,2013-09-24 00:40:00,
2013-09-23 20:12:00,52.0,-99.9,30.11,South,180,2.0,5.0,-999,-99.99,,,-99.99,,2013-09-24 01:12:00,
2013-09-23 20:22:00,52.0,-99.9,30.11,South,180,2.0,5.0,-999,-99.99,,,-99.99,,2013-09-24 01:22:00,
2013-09-23 20:32:00,52.0,-99.9,30.11,South,180,2.0,5.0,-999,-99.99,,,-99.99,,2013-09-24 01:32:00,
2013-09-23 20:40:00,52.0,-99.9,30.11,South,190,5.0,7.0,-999,-99.99,,,-99.99,,2013-09-24 01:40:00,
2013-09-23 21:12:00,52.0,-99.9,30.11,South,190,5.0,7.0,-999,-99.99,,,-99.99,,2013-09-24 02:12:00,
2013-09-23 21:23:00,52.0,-99.9,30.11,South,190,5.0,7.0,-999,-99.99,,,-99.99,,2013-09-24 02:23:00,
2013-09-23 21:32:00,52.0,-99.9,30.11,South,190,5.0,7.0,-999,-99.99,,,-99.99,,2013-09-24 02:32:00,
2013-09-23 21:40:00,51.0,-99.9,30.11,South,180,5.0,6.0,-999,-99.99,,,-99.99,,2013-09-24 02:40:00,
2013-09-23 22:12:00,51.0,-99.9,30.11,South,180,5.0,6.0,-999,-99.99,,,-99.99,,2013-09-24 03:12:00,
2013-09-23 22:22:00,51.0,-99.9,30.11,South,180,5.0,6.0,-999,-99.99,,,-99.99,,2013-09-24 03:22:00,
2013-09-23 22:35:00,51.0,-99.9,30.11,South,180,5.0,6.0,-999,-99.99,,,-99.99,,2013-09-24 03:35:00,
2013-09-23 22:40:00,52.0,-99.9,30.11,SSE,160,5.0,7.0,-999,-99.99,,,-99.99,,2013-09-24 03:40:00,
2013-09-23 23:14:00,52.0,-99.9,30.11,SSE,160,5.0,7.0,-999,-99.99,,,-99.99,,2013-09-24 04:14:00,
2013-09-23 23:24:00,52.0,-99.9,30.11,SSE,160,5.0,7.0,-999,-99.99,,,-99.99,,2013-09-24 04:24:00,
2013-09-23 23:34:00,52.0,-99.9,30.11,SSE,160,5.0,7.0,-999,-99.99,,,-99.99,,2013-09-24 04:34:00,
2013-09-23 23:40:00,53.0,-99.9,30.10,SSE,150,5.0,8.0,-999,-99.99,,,-99.99,,2013-09-24 04:40:00,